Location: Sugiez
(46.9611°N, 7.1122°E)
Time: 22:15:37
(UTC+00:00)

Daily predictions for brighter satellites

Satellite Brightness Start Highest point End
(mag) Time Altitude Azimuth Time Altitude Azimuth Time Altitude Azimuth
STARLINK-1140 3.7 19:39:42 10° WNW 19:43:50 73° SSW 19:47:57 10° SE
Cosmos 1140 Rocket 4.3 19:40:22 10° N 19:45:13 38° ENE 19:50:03 10° SE
STARLINK-1093 4.4 19:41:59 10° WNW 19:46:00 48° NNE 19:50:02 10° E
Cosmos 1703 Rocket 3.9 19:44:07 10° SSE 19:48:14 45° E 19:52:23 10° NNE
Cosmos 614 Rocket 4.1 19:43:23 10° NNW 19:48:26 64° ENE 19:53:29 10° SSE
STARLINK-1156 3.8 19:44:42 10° WNW 19:48:49 68° SW 19:52:56 10° SE
TELKOM 3 3.1 19:47:19 10° WNW 19:49:22 47° SSW 19:51:30 10° SE
STARLINK-1074 4.4 19:46:57 10° WNW 19:51:00 50° NNE 19:55:03 10° E
DMSP B5D2-2 4.2 19:46:28 10° NNE 19:51:48 88° ESE 19:57:05 10° SSW
STARLINK-1148 3.9 19:49:41 10° WNW 19:53:47 63° SW 19:57:52 10° SE
Cosmos 1743 2.7 19:50:00 10° N 19:53:50 70° E 19:57:36 10° SSE
STARLINK-1087 1.8 19:52:56 10° WNW 19:54:57 64° SSW 19:56:51 11° SE
Cosmos 1544 3.9 19:52:53 10° N 19:56:15 34° ENE 19:59:34 10° SE
Cosmos 2082 Rocket 3.9 19:52:10 10° N 19:56:39 23° NE 20:01:05 10° E
STARLINK-1158 3.9 19:54:40 10° WNW 19:58:46 58° SW 20:02:49 10° SE
STARLINK-1204 4.4 19:55:38 10° SSW 19:59:13 29° SE 20:02:50 10° ENE
Cosmos 1908 Rocket 3.6 19:55:29 10° N 19:59:56 89° W 20:04:24 10° S
STARLINK-1088 4.2 19:56:54 10° WNW 20:00:59 54° NNE 20:05:03 10° E
STARLINK-1162 4.0 19:59:38 10° WNW 20:03:41 54° SW 20:07:37 11° SE
STARLINK-1238 4.3 20:00:28 10° SSW 20:04:09 32° SE 20:07:50 10° ENE
ERS-1 Rocket 4.2 20:00:47 10° ESE 20:05:03 29° ENE 20:09:20 10° N
Cosmos 1833 Rocket 3.7 20:00:47 10° NNW 20:05:57 35° NE 20:11:04 10° ESE
STARLINK-1115 4.1 20:01:53 10° WNW 20:05:59 57° NNE 20:10:04 10° ESE
Cosmos 1975 3.1 20:04:22 10° N 20:08:23 54° ENE 20:12:20 10° SSE
STARLINK-1201 4.2 20:05:21 10° SSW 20:09:07 34° SE 20:12:53 10° ENE
Tsikada Rocket 4.0 20:03:38 10° S 20:09:48 73° E 20:15:58 10° NNE
Resurs 1-3 4.4 20:05:47 10° S 20:10:03 51° W 20:14:22 10° NNW
Spot 2 Rocket 3.7 20:05:22 10° SSE 20:10:18 57° ENE 20:15:15 10° N
STARLINK-1076 4.0 20:06:52 10° WNW 20:10:59 60° NNE 20:15:04 10° ESE
Meteor 2-9 Rocket 4.2 20:07:18 10° N 20:12:43 63° ENE 20:17:59 10° SSE
CZ-2C R/B 3.2 20:07:21 10° N 20:12:54 68° WNW 20:18:28 10° SSW
STARLINK-1159 4.2 20:09:39 10° WNW 20:13:38 46° SW 20:17:12 12° SSE
STARLINK-1206 4.1 20:10:14 10° SSW 20:14:04 37° SE 20:17:54 10° ENE
STARLINK-1092 4.0 20:11:49 10° WNW 20:15:57 63° NNE 20:20:04 10° ESE
Cosmos 389 Rocket 2.7 20:13:41 10° SSW 20:17:07 71° WNW 20:20:37 10° N
Cosmos 2056 Rocket 3.6 20:13:34 10° S 20:18:31 52° ESE 20:23:28 10° NNE
Cosmos 2242 Rocket 4.2 20:14:10 10° SSW 20:18:31 59° WNW 20:22:52 10° N
STARLINK-1171 4.4 20:14:41 10° WNW 20:18:36 42° SW 20:22:00 13° SSE
STARLINK-1205 4.0 20:15:08 10° SSW 20:19:01 40° SE 20:22:54 10° ENE
SL-4 R/B 3.8 20:17:05 10° N 20:19:02 15° NE 20:20:54 10° ENE
Okean 1 3.5 20:15:25 10° SSW 20:19:27 80° W 20:23:32 10° N
STARLINK-1080 3.9 20:16:50 10° WNW 20:20:59 67° NNE 20:24:54 11° ESE
STARLINK-1155 4.5 20:19:41 10° WNW 20:23:34 39° SW 20:26:47 14° SSE
STARLINK-1218 3.9 20:20:02 10° SSW 20:23:58 44° SE 20:27:54 10° ENE
ISS -2.3 20:20:49 10° WNW 20:24:00 37° N 20:27:11 10° ENE
Iridium 51 4.3 20:20:12 10° S 20:24:20 72° E 20:28:10 10° N
Cosmos 909 Rocket 4.5 20:16:55 10° NW 20:25:05 82° WSW 20:31:07 13° SSE
STARLINK-1090 3.8 20:21:48 10° WNW 20:25:57 71° NNE 20:29:41 13° ESE
Meteor 1-19 Rocket 4.2 20:21:32 10° S 20:27:05 77° E 20:32:52 10° NNE
Cosmos 44 Rocket 4.5 20:23:09 10° NW 20:27:37 36° WSW 20:32:09 10° S
STARLINK-1254 3.8 20:24:58 10° SW 20:28:55 47° SE 20:32:56 10° ENE
SL-8 R/B 3.7 20:25:28 10° WSW 20:30:18 90° NNE 20:35:08 10° ENE
STARLINK-1089 3.7 20:26:48 10° WNW 20:30:56 75° NNE 20:34:28 14° ESE
CARTOSAT-1 4.3 20:28:14 15° SE 20:31:26 39° ENE 20:35:29 10° N
Cosmos 2278 Rocket 2.6 20:26:10 10° S 20:31:28 42° ESE 20:36:48 10° NE
STARLINK-1231 3.7 20:29:54 10° SW 20:33:54 51° SE 20:37:57 10° ENE
Cosmos 1356 4.0 20:30:42 10° NNW 20:34:06 56° W 20:37:23 11° S
STARLINK-1107 3.7 20:31:46 10° WNW 20:35:55 80° NNE 20:39:15 16° ESE
Meteor 1-18 Rocket 4.4 20:31:07 10° SSW 20:36:39 77° W 20:42:20 10° N
Cosmos 1437 Rocket 4.3 20:37:00 16° ESE 20:38:23 20° E 20:41:10 10° NE
Meteor 1-12 Rocket 4.5 20:33:15 10° N 20:38:49 57° ENE 20:43:14 16° SSE
STARLINK-1232 3.6 20:34:49 10° SW 20:38:52 56° SE 20:42:56 10° ENE
Lacrosse 5 2.7 20:35:03 10° NW 20:39:56 45° NNE 20:44:47 10° E
NOSS 2-3 (E) 3.6 20:35:43 10° SSW 20:39:59 79° SE 20:45:04 10° NE
STARLINK-1066 3.6 20:36:45 10° WNW 20:40:55 85° NNE 20:44:02 17° ESE
Terra 2.7 20:38:31 16° SE 20:41:47 36° ENE 20:46:08 10° N
Cosmos 1844 Rocket 4.1 20:36:47 10° SW 20:42:09 42° NW 20:47:31 10° NNE
STARLINK-1208 3.6 20:39:45 10° SW 20:43:49 60° SE 20:47:55 10° ENE
STARLINK-1228 3.8 20:41:20 10° WSW 20:44:37 56° NNW 20:47:54 10° ENE
STARLINK-1081 3.6 20:41:44 10° WNW 20:45:54 89° ENE 20:48:49 19° ESE
IGS 5A 3.5 20:44:11 15° S 20:47:36 78° WSW 20:51:47 10° NNW
STARLINK-1234 3.7 20:45:10 10° WSW 20:48:13 53° NNW 20:51:18 10° NE
STARLINK-1271 3.5 20:44:42 10° SW 20:48:48 65° SE 20:52:55 10° ENE
STARLINK-1212 3.3 20:46:28 10° WSW 20:49:33 65° NNW 20:52:39 10° ENE
Cosmos 1452 Rocket 4.1 20:45:55 16° SSE 20:49:33 36° ESE 20:54:23 10° NE
STARLINK-1209 3.8 20:46:56 10° W 20:50:00 50° NNW 20:53:06 10° NE
STARLINK-1105 3.3 20:46:57 10° WSW 20:50:01 64° NNW 20:53:07 10° ENE
STARLINK-1070 3.6 20:46:42 10° WNW 20:50:52 85° SSW 20:53:36 21° ESE
STARLINK-1247 3.3 20:47:51 10° WSW 20:50:57 64° NNW 20:54:03 10° ENE
Cosmos 1515 4.3 20:47:11 10° SSW 20:50:57 56° WNW 20:54:44 10° N
Cosmos 2142 Rocket 4.4 20:44:57 10° N 20:51:08 80° E 20:56:11 16° SSE
STARLINK-1227 3.3 20:48:19 10° WSW 20:51:24 63° NNW 20:54:30 10° ENE
Cosmos 1300 Rocket 3.7 20:47:05 10° N 20:51:31 64° ENE 20:54:26 21° SSE
Okean 3 3.4 20:47:57 13° S 20:51:43 73° E 20:56:02 10° NNE
STARLINK-1226 3.3 20:49:11 10° WSW 20:52:16 62° NNW 20:55:21 10° ENE
Crew Dragon 1.9 20:50:46 10° NW 20:52:40 27° NNE 20:54:13 13° ENE
Cosmos 407 Rocket 4.3 20:48:00 10° NNW 20:53:07 48° WSW 20:57:50 12° S
STARLINK-1215 3.4 20:50:07 10° WSW 20:53:12 62° NNW 20:56:18 10° ENE
STARLINK-1154 3.5 20:49:39 10° SW 20:53:46 70° SSE 20:57:54 10° ENE
USA 245 3.6 20:50:56 14° S 20:53:58 51° WSW 20:57:00 10° NNW
STARLINK-1217 3.4 20:51:54 10° WSW 20:54:58 60° NNW 20:58:04 10° ENE
STARLINK-1069 3.6 20:51:40 10° WNW 20:55:50 80° SSW 20:58:22 23° SE
STARLINK-1229 3.5 20:52:49 10° WSW 20:55:53 59° NNW 20:58:59 10° ENE
Cosmos 1420 Rocket 4.0 20:51:07 10° S 20:56:13 58° ESE 21:01:19 10° NNE
STARLINK-1270 3.5 20:53:41 10° WSW 20:56:46 58° NNW 20:59:51 10° ENE
Cosmos 2221 Rocket 3.6 20:54:39 13° S 20:58:36 81° E 21:03:10 10° N
STARLINK-1189 3.5 20:55:32 10° WSW 20:58:36 57° NNW 21:01:42 10° NE
STARLINK-1197 3.5 20:54:36 10° SW 20:58:44 75° SSE 21:02:53 10° ENE
Okean 1-7 4.5 20:55:10 10° SW 20:59:08 36° WNW 21:03:07 10° N
STARLINK-1188 3.6 20:56:25 10° WSW 20:59:29 56° NNW 21:02:34 10° NE
NOSS 2-3 (D) 3.8 20:55:39 10° SW 20:59:56 79° NW 21:05:04 10° NE
STARLINK-1235 3.9 20:57:12 10° W 21:00:12 47° NNW 21:03:13 10° NE
STARLINK-1187 3.8 20:57:35 10° W 21:00:36 50° NNW 21:03:37 10° NE
STARLINK-1085 3.6 20:56:41 10° WNW 21:00:49 75° SSW 21:03:10 25° SE
Meteor 1-13 Rocket 4.3 20:56:55 15° S 21:01:27 63° E 21:07:05 10° NNE
COSMOS 2406 3.5 20:56:03 10° NNW 21:01:47 65° WSW 21:05:59 18° S
STARLINK-1191 3.6 20:58:55 10° WSW 21:01:58 54° NNW 21:05:01 10° NE
STARLINK-1221 3.7 20:59:48 10° WSW 21:02:50 53° NNW 21:05:53 10° NE
Cosmos 371 Rocket 3.6 21:00:02 19° S 21:03:10 45° ESE 21:07:49 10° NNE
STARLINK-1198 3.5 20:59:33 10° SW 21:03:42 80° SSE 21:07:51 10° ENE
STARLINK-1222 3.7 21:00:41 10° WSW 21:03:43 52° NNW 21:06:46 10° NE
STARLINK-1214 3.7 21:01:37 10° WSW 21:04:39 52° NNW 21:07:42 10° NE
Resurs 01 Rocket 3.7 21:01:12 10° SW 21:04:40 22° W 21:08:10 10° NW
Meteor 2-4 Rocket 3.6 20:59:31 10° SSW 21:04:56 83° WNW 21:10:19 10° N
USA 215 3.8 20:59:15 10° E 21:05:36 55° NNE 21:11:57 10° NW
STARLINK-1086 3.6 21:01:40 10° WNW 21:05:48 69° SSW 21:07:57 27° SE
SPOT 1/Viking Rocket 3.8 21:02:31 16° S 21:06:38 66° WSW 21:11:47 10° NNW
Cosmos 1674 Rocket 4.0 21:04:49 25° SSE 21:06:55 43° E 21:11:05 10° NNE
Abrixas rocket 2.1 21:04:05 10° W 21:07:01 70° N 21:09:45 12° ENE
STARLINK-1094 4.4 21:03:55 10° WNW 21:07:58 49° NNE 21:11:32 13° E
CREW DRAGON DEMO-1 DEB 4.4 21:05:55 10° W 21:08:26 23° SW 21:09:01 22° SSW
STARLINK-1199 3.5 21:04:33 10° WSW 21:08:42 86° SE 21:12:52 10° ENE
STARLINK-1095 3.7 21:06:38 10° WNW 21:10:45 64° SW 21:12:43 29° SE
Meteor 1-4 Rocket 3.8 21:07:47 10° SW 21:11:02 38° WNW 21:14:18 10° N
STARLINK-1117 4.3 21:08:54 10° WNW 21:12:58 51° NNE 21:16:19 14° E
STARLINK-1210 3.6 21:09:31 10° WSW 21:13:39 89° NNW 21:17:49 10° ENE
Cosmos 1378 Rocket 4.2 21:12:35 27° SE 21:14:24 40° E 21:18:31 10° NNE
NOSS 3 (A) 4.2 21:13:41 22° SW 21:15:14 81° SE 21:18:12 10° NE
STARLINK-1077 3.7 21:11:37 10° WNW 21:15:43 60° SW 21:17:29 31° SSE
SPOT 5 3.0 21:12:28 22° SSE 21:15:49 85° WSW 21:21:10 10° NNW
Nadezhda 4 Rocket 4.3 21:13:37 22° SSE 21:17:18 49° E 21:23:10 10° NNE
STARLINK-1078 4.2 21:13:52 10° WNW 21:17:57 54° NNE 21:21:05 16° E
STARLINK-1219 3.6 21:14:30 10° WSW 21:18:38 84° NNW 21:22:48 10° ENE
NOSS 3-1 (A) 4.1 21:14:26 10° WSW 21:19:57 57° NW 21:26:25 10° NE
STARLINK-1075 3.8 21:16:37 10° WNW 21:20:41 55° SW 21:22:17 33° SSE
STARLINK-1192 4.4 21:21:26 31° SE 21:21:26 31° SE 21:24:50 10° ENE
Cosmos 1741 Rocket 4.2 21:16:31 10° NNW 21:21:43 62° ENE 21:24:31 27° SE
STARLINK-1108 4.2 21:18:51 10° WNW 21:22:57 56° NNE 21:25:52 18° E
STARLINK-1211 3.7 21:19:28 10° WSW 21:23:37 79° NNW 21:27:46 10° ENE
Cosmos 2279 Rocket 4.2 21:17:45 10° NNW 21:23:59 71° W 21:28:35 19° S
STARLINK-1093 3.9 21:21:37 10° WNW 21:25:39 51° SW 21:27:04 34° SSE
STARLINK-1244 4.2 21:26:11 33° SE 21:26:11 33° SE 21:29:50 10° ENE
Okean 2 Rocket 3.8 21:23:05 10° NNW 21:27:22 47° W 21:30:14 19° SSW
Cosmos 2297 4.4 21:25:27 26° SE 21:27:34 35° ESE 21:32:42 10° NE
STARLINK-1071 4.1 21:23:50 10° WNW 21:27:56 59° NNE 21:30:39 20° E
STARLINK-1245 3.8 21:24:28 10° WSW 21:28:37 75° NNW 21:32:46 10° ENE
STARLINK-1074 4.0 21:26:37 10° WNW 21:30:37 47° SW 21:31:51 35° S
STARLINK-1138 4.1 21:30:58 36° SE 21:31:03 36° SE 21:34:52 10° ENE
STARLINK-1110 4.0 21:28:01 10° WNW 21:32:09 62° NNE 21:34:41 22° E
BREEZE-M DEB (TANK) 4.0 21:17:19 10° WNW 21:32:22 84° SSW 21:35:38 23° ESE
STARLINK-1203 4.1 21:32:36 36° SSE 21:33:13 39° SE 21:37:08 10° ENE
STARLINK-1233 3.9 21:29:27 10° WSW 21:33:35 71° NNW 21:37:44 10° ENE
ERBS 2.1 21:32:41 22° SW 21:34:39 71° SE 21:37:58 10° NE
Cosmos 1850 Rocket 4.0 21:30:28 10° NNW 21:35:51 84° ENE 21:38:31 31° SSE
STARLINK-1143 4.0 21:35:46 39° SSE 21:36:00 39° SE 21:39:53 10° ENE
STARLINK-1124 3.9 21:33:48 10° WNW 21:37:56 66° NNE 21:40:13 25° E
STARLINK-1204 4.0 21:34:28 10° WSW 21:38:35 67° NNW 21:42:43 10° ENE
Cosmos 2151 Rocket 4.3 21:36:01 10° NNW 21:40:24 51° W 21:42:53 24° SSW
STARLINK-1088 4.2 21:36:37 10° WNW 21:40:31 40° SW 21:41:24 35° S
STARLINK-1241 3.9 21:40:29 41° SSE 21:40:56 42° SE 21:44:53 10° ENE
Cosmos 2082 Rocket 2.2 21:35:40 10° NNW 21:41:24 78° WSW 21:44:18 30° SSE
STARLINK-1122 3.8 21:38:46 10° WNW 21:42:54 69° NNE 21:45:00 28° ESE
STARLINK-1238 4.1 21:39:26 10° WSW 21:43:33 63° NNW 21:47:40 10° ENE
ERS-1 Rocket 3.9 21:40:28 19° SSW 21:43:40 41° W 21:48:27 10° NNW
Okean 1 Rocket 3.0 21:40:38 10° N 21:45:09 84° E 21:46:51 38° SSE
Cosmos 1110 Rocket 4.4 21:43:28 33° SSE 21:45:09 43° ESE 21:50:03 10° NE
STARLINK-1115 4.3 21:41:37 10° WNW 21:45:27 37° SW 21:46:10 34° SSW
STARLINK-1239 3.8 21:45:15 42° S 21:45:54 46° SE 21:49:53 10° ENE
SeaSat 1 2.5 21:41:22 10° NE 21:46:13 56° ESE 21:48:19 32° S
STARLINK-1126 3.7 21:43:42 10° WNW 21:47:52 74° NNE 21:49:44 31° ESE
STARLINK-1201 4.2 21:44:28 10° WSW 21:48:33 60° NNW 21:52:40 10° ENE
Cosmos 1833 Rocket 3.5 21:44:41 10° NW 21:49:57 42° WSW 21:52:51 24° SSW
STARLINK-1076 4.4 21:46:38 10° WNW 21:50:25 34° SW 21:50:57 33° SSW
Aureole 2 Rocket 3.0 21:51:13 38° E 21:51:13 38° E 21:53:41 10° NE
STARLINK-1240 3.7 21:50:02 42° S 21:50:52 50° SE 21:54:53 10° ENE
Cosmos 304 Rocket 3.8 21:50:10 36° S 21:51:57 61° ESE 21:56:42 10° NNE
SL-4 R/B 1.6 21:49:23 10° NW 21:52:29 51° WSW 21:52:33 51° WSW
Cosmos 1805 3.4 21:48:39 10° N 21:52:33 59° ENE 21:53:26 46° SE
STARLINK-1082 3.6 21:48:44 10° WNW 21:52:53 78° NNE 21:54:34 35° ESE
Meteor 1-15 Rocket 4.4 21:47:00 10° NNW 21:52:56 76° W 21:56:04 29° S
EO 1 Del DPAF 3.8 21:49:47 10° NNE 21:53:22 39° E 21:53:37 38° ESE
STARLINK-1206 4.3 21:49:28 10° WSW 21:53:33 57° NNW 21:57:39 10° ENE
Okean 2 4.0 21:53:51 36° ESE 21:54:29 38° E 21:58:21 10° NNE
Cosmos 1092 Rocket 4.1 21:52:19 31° SSE 21:55:14 60° E 22:01:15 10° NNE
STARLINK-1216 3.6 21:54:48 41° SSW 21:55:50 54° SE 21:59:53 10° ENE
Cosmos 332 Rocket 3.8 21:52:44 23° SSW 21:55:51 82° WNW 22:00:47 10° NNE
Cosmos 2369 Rocket 3.6 21:57:13 20° ESE 21:57:52 20° E 22:01:56 10° NE
STARLINK-1100 3.6 21:53:42 10° WNW 21:57:52 83° NNE 21:59:21 39° ESE
Cosmos 1455 Rocket 4.0 21:53:57 10° N 21:57:57 34° ENE 21:59:07 29° ESE
STARLINK-1205 4.4 21:54:29 10° W 21:58:33 54° NNW 22:02:38 10° ENE
STARLINK-1237 3.6 21:59:35 40° SSW 22:00:48 58° SE 22:04:53 10° ENE
ISS -3.9 21:57:40 10° WNW 22:01:03 90° SSE 22:01:21 73° ESE
Cosmos 1066 Rocket 4.1 21:58:19 26° SSW 22:01:25 80° WNW 22:06:49 10° N
STARLINK-1083 3.5 21:58:41 10° WNW 22:02:51 88° NNE 22:04:08 43° ESE
USA 238 DEB 4.5 21:55:59 10° NW 22:02:56 51° NE 22:08:58 15° ESE
Cosmos 1378 3.0 22:02:30 59° SSE 22:03:06 76° E 22:06:50 10° NNE
STARLINK-1218 4.4 21:59:29 10° W 22:03:32 52° NNW 22:07:36 10° ENE
Cosmos 1842 4.0 22:05:25 36° ESE 22:05:41 37° E 22:09:19 10° NNE
STARLINK-1202 3.5 22:04:22 37° SSW 22:05:47 63° SE 22:09:53 10° ENE
STARLINK-1125 3.5 22:03:40 10° WNW 22:07:49 87° SSW 22:08:54 49° ESE
Cosmos 1943 Rocket 2.9 22:07:36 31° SE 22:08:35 33° ESE 22:13:31 10° NE
Cosmos 1331 Rocket 4.0 22:07:06 39° S 22:08:52 62° ESE 22:13:58 10° NNE
STARLINK-1109 3.5 22:08:38 10° WNW 22:12:48 82° SSW 22:13:41 54° SE
SL-8 R/B 3.8 22:08:11 10° W 22:13:00 75° N 22:17:51 10° E
Cosmos 1437 Rocket 4.2 22:12:21 19° WSW 22:14:26 31° WNW 22:17:52 10° N
Cosmos 2278 Rocket 3.7 22:10:27 10° WSW 22:15:38 36° NW 22:20:52 10° NNE
STARLINK-1246 3.4 22:13:53 32° SW 22:15:42 73° SSE 22:19:51 10° ENE
STARLINK-1091 3.5 22:13:36 10° WNW 22:17:46 77° SSW 22:18:28 59° SE
Cosmos 2195 Rocket 4.5 22:14:48 34° S 22:17:46 76° E 22:24:03 10° NNE
Terra 3.2 22:17:23 21° SW 22:19:34 29° W 22:23:44 10° NW
ALOS 2 3.5 22:19:22 32° ESE 22:20:37 39° ENE 22:24:43 10° N
STARLINK-1224 3.4 22:18:40 29° SW 22:20:41 78° SSE 22:24:50 10° ENE
STARLINK-1072 3.5 22:18:36 10° WNW 22:22:45 71° SSW 22:23:15 62° SSE
Lacrosse 5 2.2 22:18:06 10° WNW 22:22:59 50° SW 22:24:01 43° S
STARLINK-1099 4.5 22:20:52 10° WNW 22:24:54 48° NNE 22:27:49 17° E
Spot 4 3.8 22:23:24 45° SSE 22:24:54 86° ENE 22:29:48 10° NNW
STARLINK-1225 3.5 22:23:26 26° SW 22:25:40 84° SE 22:29:50 10° ENE
Thor Agena Rocket 3.5 22:20:32 10° NNE 22:25:53 89° WNW 22:28:05 37° SSW
Crew Dragon 3.4 22:24:17 10° WNW 22:24:19 10° WNW 22:24:19 10° WNW
STARLINK-1096 3.5 22:23:37 10° WNW 22:27:44 66° SW 22:28:03 63° S
STARLINK-1104 4.4 22:25:52 10° WNW 22:29:55 50° NNE 22:32:37 19° E
STARLINK-1230 3.5 22:28:12 24° WSW 22:30:38 89° SSE 22:34:48 10° ENE
SL-4 R/B 3.2 22:31:54 21° N 22:31:54 21° N 22:32:50 10° N
BREEZE-M DEB (TANK) 3.4 22:18:04 10° WSW 22:31:19 88° SSE 22:34:55 10° ENE
STARLINK-1079 3.6 22:28:34 10° WNW 22:32:40 61° SW 22:32:47 61° SSW
Cosmos 1544 Rocket 3.8 22:29:31 10° N 22:33:49 57° ENE 22:34:36 49° ESE
EXPRESS MD2 4.1 22:30:08 13° WSW 22:33:52 80° SSE 22:42:43 10° ENE
STARLINK-1144 4.3 22:30:51 10° WNW 22:34:55 53° NNE 22:37:24 22° E
STARLINK-1243 3.5 22:32:58 22° WSW 22:35:37 86° NNW 22:39:46 10° ENE
Cosmos 1726 4.1 22:33:07 10° NNE 22:35:50 19° ENE 22:36:25 18° E
STARLINK-1116 3.7 22:33:34 10° WNW 22:37:35 57° SW 22:37:35 57° SW
Cosmos 1766 3.8 22:34:01 10° NNW 22:37:50 47° W 22:38:27 43° WSW
SL-27 R/B 3.2 22:35:52 10° N 22:39:19 42° ENE 22:39:37 41° E
STARLINK-1103 4.2 22:35:50 10° WNW 22:39:55 55° NNE 22:42:10 24° E
STARLINK-1236 3.6 22:37:45 20° WSW 22:40:35 81° NNW 22:44:45 10° ENE
Abrixas rocket 3.7 22:39:42 10° WNW 22:41:15 27° WNW 22:41:15 27° WNW
Cosmos 1553 Rocket 4.1 22:36:41 10° N 22:43:02 71° E 22:45:31 38° SSE
Cosmos 1953 3.7 22:39:35 10° NNE 22:43:05 28° ENE 22:43:45 26° E
Cosmos 1461 3.0 22:43:04 41° SW 22:44:26 72° NW 22:48:49 10° NNE
STARLINK-1101 4.1 22:40:48 10° WNW 22:44:54 58° NNE 22:46:57 27° E
Cosmos 1271 Rocket 3.3 22:46:32 42° E 22:46:32 42° E 22:50:07 10° NNE
STARLINK-1094 4.0 22:43:35 10° WNW 22:47:10 46° WSW 22:47:10 46° WSW
USA 215 3.3 22:45:48 36° SSE 22:48:34 64° SW 22:55:05 10° WNW
Cosmos 2026 Rocket 4.0 22:45:53 34° SSW 22:48:45 76° W 22:55:07 10° N
STARLINK-1102 4.0 22:45:48 10° WNW 22:49:55 61° NNE 22:51:45 30° E
STARLINK-1269 3.8 22:47:16 16° WSW 22:50:33 72° NNW 22:54:42 10° ENE
Aureole 3 Rocket 3.9 22:46:02 10° N 22:51:16 88° E 22:54:05 38° S
Cosmos 1758 3.4 22:47:38 10° N 22:51:39 65° ENE 22:52:04 60° ESE
STARLINK-1117 4.2 22:48:35 10° WNW 22:51:56 41° WSW 22:51:56 41° WSW
Cosmos 1707 3.2 22:53:56 46° E 22:53:57 46° E 22:57:42 10° NNE
STARLINK-1111 3.9 22:50:46 10° WNW 22:54:53 64° NNE 22:56:31 34° E
STARLINK-1200 3.9 22:52:04 14° WSW 22:55:33 68° NNW 22:59:42 10° ENE
Cosmos 1733 4.2 22:53:36 10° NNW 22:57:08 35° W 22:57:26 35° WSW
Cosmos 1900 4.3 22:52:06 10° NW 22:57:09 89° SW 22:58:31 50° SSE
STARLINK-1078 4.4 22:53:34 10° WNW 22:56:43 37° WSW 22:56:43 37° WSW
NOSS 2-2 (D) 3.1 22:57:13 72° WSW 22:57:31 80° NW 23:01:33 10° NE
STARLINK-1073 3.8 22:55:45 10° WNW 22:59:53 68° NNE 23:01:18 39° E
STARLINK-1192 4.0 22:56:50 12° WSW 23:00:33 64° NNW 23:04:40 10° ENE
NOSS 3-2 (C) 4.3 22:53:17 10° NW 23:00:42 69° NE 23:07:07 19° SE
Cosmos 1975 Rocket 3.9 23:00:54 34° WSW 23:02:13 45° WNW 23:06:31 10° N
Cosmos 2292 Rocket 4.4 23:02:09 34° ESE 23:02:29 35° E 23:05:59 10° NNE
STARLINK-1121 3.7 23:00:43 10° WNW 23:04:51 72° NNE 23:06:04 44° E
STARLINK-1244 4.1 23:01:35 11° WSW 23:05:31 61° NNW 23:09:38 10° ENE
STARLINK-1106 3.7 23:05:41 10° WNW 23:09:51 76° NNE 23:10:51 50° E
STARLINK-1138 4.2 23:06:26 10° WSW 23:10:31 58° NNW 23:14:38 10° ENE
NOSS 3-4 (A) 4.2 23:10:06 31° SE 23:10:54 32° ESE 23:16:19 10° NE
NOSS 3-4 (C) 4.2 23:10:13 31° SE 23:11:00 32° ESE 23:16:25 10° NE
Cosmos 1242 Rocket 2.7 23:11:36 66° W 23:11:38 66° WNW 23:15:18 10° N
SL-4 R/B 4.4 23:13:39 15° ESE 23:13:39 15° ESE 23:15:03 10° E
Meteor 2-10 4.0 23:07:28 10° N 23:12:33 68° ENE 23:13:53 47° SE
STARLINK-1203 4.2 23:08:48 10° W 23:12:57 56° NNW 23:17:06 10° ENE
Aureole 3 4.1 23:10:24 10° N 23:13:50 33° ENE 23:13:55 33° ENE
STARLINK-1112 3.6 23:10:41 10° WNW 23:14:50 81° NNE 23:15:39 57° ESE
STARLINK-1143 4.3 23:11:26 10° W 23:15:31 55° NNW 23:19:37 10° ENE
NOSS 2-2 (E) 4.2 23:15:11 30° W 23:16:34 44° NW 23:20:37 10° NNE
ATLAS 3B R/B 3.8 23:10:15 10° NNW 23:16:38 42° NE 23:23:11 10° ESE
Cosmos 2266 Rocket 4.1 23:16:09 40° SSE 23:18:14 62° E 23:24:13 10° NNE
Cosmos 1674 4.2 23:18:32 25° E 23:18:32 25° E 23:21:36 10° NE
STARLINK-1128 3.5 23:15:40 10° WNW 23:19:50 86° NNE 23:20:26 64° ESE
ATLAS CENTAUR R/B 3.6 23:20:47 15° E 23:20:47 15° E 23:22:31 10° ENE
STARLINK-1241 4.4 23:16:27 10° W 23:20:30 53° NNW 23:24:35 10° ENE
Cosmos 1470 3.1 23:16:47 10° NNW 23:20:33 49° W 23:20:37 49° W
CENTAUR R/B 3.3 23:12:50 10° NW 23:20:49 76° NE 23:27:41 18° SE
Cosmos 1503 Rocket 4.2 23:17:44 10° NNW 23:23:01 68° ENE 23:24:51 41° SE
SeaSat 1 4.3 23:19:20 10° N 23:23:28 27° NW 23:27:35 10° WSW
Cosmos 2082 Rocket 4.4 23:22:20 10° WNW 23:24:29 12° W 23:26:09 11° WSW
STARLINK-1113 3.5 23:20:38 10° WNW 23:24:48 89° SW 23:25:12 73° ESE
STARLINK-1239 4.4 23:21:27 10° W 23:25:30 50° NNW 23:29:34 10° ENE
BREEZE-M DEB 4.1 23:26:01 10° W 23:29:41 76° N 23:43:18 10° E
STARLINK-1119 3.4 23:25:37 10° WNW 23:29:47 84° SSW 23:29:59 79° SSE
BREEZE-M DEB (TANK) 3.0 23:27:57 10° WNW 23:31:25 82° NNE 23:36:36 10° ESE
Cosmos 1867 4.3 23:27:04 10° NNW 23:32:25 52° NE 23:36:08 19° ESE
Helios 1A 3.0 23:33:57 60° SW 23:34:16 63° WSW 23:38:26 10° NNW
STARLINK-1114 3.4 23:30:37 10° WNW 23:34:46 78° SSW 23:34:46 78° SSW
Cosmos 883 Rocket 4.4 23:28:38 10° N 23:34:49 78° E 23:37:08 41° SSE
Meteor 2-19 Rocket 4.4 23:34:37 43° S 23:36:48 84° E 23:42:58 10° N
Cosmos 968 Rocket 3.4 23:31:46 10° NNW 23:36:56 70° WSW 23:38:01 53° SSW
Cosmos 1354 Rocket 4.0 23:32:36 10° NNW 23:37:55 80° ENE 23:39:37 45° SSE
ATLAS 2AS CENTAUR R/B 3.2 23:35:54 36° S 23:39:11 60° ESE 23:46:59 10° NE
Cosmos 1908 3.8 23:35:58 10° N 23:39:40 46° ENE 23:40:02 44° E
STARLINK-1130 (DARKSAT) 3.5 23:35:35 10° WNW 23:39:32 71° WSW 23:39:32 71° WSW
Cosmos 2369 Rocket 2.4 23:38:58 36° SW 23:41:20 68° WNW 23:47:00 10° NNE
STARLINK-1084 3.6 23:40:34 10° WNW 23:44:18 63° WSW 23:44:18 63° WSW
Cosmos 1486 Rocket 4.4 23:40:49 10° NNW 23:45:53 46° WSW 23:46:50 41° SW
Cosmos 1025 Rocket 3.7 23:45:35 39° WSW 23:46:20 43° WNW 23:50:27 10° N
CZ-2D R/B 4.3 23:44:05 10° ENE 23:46:26 13° E 23:48:46 10° ESE
NOSS 3-2 (A) 4.2 23:39:24 10° NW 23:46:47 56° WSW 23:50:12 35° S
Cosmos 1726 Rocket 4.2 23:44:27 10° N 23:48:39 47° ENE 23:49:40 38° ESE
STARLINK-1098 3.8 23:45:35 10° WNW 23:49:07 56° WSW 23:49:07 56° WSW
Cosmos 2315 Rocket 3.9 23:43:30 10° N 23:49:45 82° E 23:52:12 40° SSE
Cosmos 1943 Rocket 3.1 23:49:04 22° WSW 23:52:12 43° NW 23:57:32 10° NNE
Helios 1B rocket 2.5 23:48:21 10° NNE 23:52:28 62° ESE 23:52:51 59° SE
Meteor 2-5 Rocket 4.2 23:52:49 35° SE 23:54:37 48° E 23:59:56 10° NNE
STARLINK-1123 4.0 23:50:33 10° WNW 23:53:53 49° W 23:53:53 49° W
KORONAS-FOTON 3.9 23:55:12 62° ESE 23:55:18 62° E 23:59:05 10° NNE
Resurs 1-4 Rocket 4.2 23:53:18 10° NE 23:56:37 17° E 23:59:06 13° ESE
